DW7013 Weather Reports


time (UTC)temp
C
wind
direction
speed
KPH
gust
KPH
rain 1hr
cm
rain 24hr
cm
rain mn
cm
humidity
%
barometer
mb
20260904065215 15 85 0.0 0.0 0.00 0.00 0.00 76 1023.0
20260904064724 15 85 0.0 0.0 0.00 0.00 0.00 79 1023.1
20260904064212 14 85 0.0 0.0 0.00 0.00 0.00 79 1023.1
20260904063723 14 85 0.0 0.0 0.00 0.00 0.00 80 1023.1
20260904063216 13 85 0.0 0.0 0.00 0.00 0.00 82 1023.1
20260904061732 13 59 0.0 0.0 0.00 0.00 0.00 83 1023.1
20260904060724 12 59 0.0 0.0 0.00 0.00 0.00 83 1023.2
20260904060215 12 59 0.0 0.0 0.00 0.00 0.00 83 1023.2
20260904055218 12 59 0.0 0.0 0.00 0.00 0.00 83 1023.2
20260904054719 12 59 0.0 0.0 0.00 0.00 0.00 83 1023.3
20260904053724 12 59 0.0 0.0 0.00 0.00 0.00 83 1023.2
20260904053219 12 59 0.0 0.0 0.00 0.00 0.00 83 1023.2
20260904052726 12 59 0.0 0.0 0.00 0.00 0.00 83 1023.2
20260904052228 12 59 0.0 0.0 0.00 0.00 0.00 82 1023.2
20260904051722 12 59 0.0 0.0 0.00 0.00 0.00 82 1023.1
20260904050748 12 22 0.0 0.0 0.00 0.00 0.00 82 1023.3
20260904050223 12 22 0.0 0.0 0.00 0.00 0.00 82 1023.3
20260904045731 12 27 0.0 0.0 0.00 0.00 0.00 82 1023.3
20260904045223 12 27 0.0 0.0 0.00 0.00 0.00 82 1023.4
20260904044729 12 27 0.0 0.0 0.00 0.00 0.00 82 1023.3
20260904044220 12 27 0.0 0.0 0.00 0.00 0.00 81 1023.3
20260904043717 12 27 0.0 0.0 0.00 0.00 0.00 81 1023.3
20260904043221 12 27 0.0 0.0 0.00 0.00 0.00 81 1023.3
20260904042222 12 27 0.0 0.0 0.00 0.00 0.00 81 1023.4
20260904041729 12 27 0.0 0.0 0.00 0.00 0.00 81 1023.4
20260904041211 12 27 0.0 0.0 0.00 0.00 0.00 81 1023.4
20260904040714 12 27 0.0 0.0 0.00 0.00 0.00 81 1023.4
20260904040222 12 27 0.0 0.0 0.00 0.00 0.00 81 1023.6
20260904035225 13 27 0.0 0.0 0.00 0.00 0.00 81 1023.6
20260904034714 13 27 0.0 0.0 0.00 0.00 0.00 80 1023.7
20260904034214 13 27 0.0 0.0 0.00 0.00 0.00 80 1023.8
20260904033219 13 27 0.0 0.0 0.00 0.00 0.00 80 1023.8
20260904032708 13 27 0.0 0.0 0.00 0.00 0.00 80 1023.9
20260904032218 13 27 0.0 0.0 0.00 0.00 0.00 80 1023.9
20260904031722 13 27 0.0 0.0 0.00 0.00 0.00 80 1023.9
20260904030728 13 25 0.0 0.0 0.00 0.00 0.00 80 1023.8
20260904030218 13 355 0.0 0.0 0.00 0.00 0.00 79 1023.8
20260904025720 13 44 0.0 0.0 0.00 0.00 0.00 79 1023.8
20260904024720 13 51 0.0 0.0 0.00 0.00 0.00 79 1023.9
20260904024231 13 51 0.0 0.0 0.00 0.00 0.00 79 1024.0
20260904023723 13 51 0.0 0.0 0.00 0.00 0.00 79 1024.1
20260904022718 13 355 0.0 0.0 0.00 0.00 0.00 79 1024.3
20260904021749 13 342 0.0 0.0 0.00 0.00 0.00 78 1024.1
20260904021213 13 342 0.0 0.0 0.00 0.00 0.00 78 1024.4
20260904020716 13 90 0.0 0.0 0.00 0.00 0.00 78 1024.3
20260904020237 13 90 0.0 0.0 0.00 0.00 0.00 78 1024.3
20260904015731 13 96 0.0 0.0 0.00 0.00 0.00 78 1024.3
20260904015218 13 126 0.0 0.0 0.00 0.00 0.00 78 1024.3
20260904014722 13 40 0.0 0.0 0.00 0.00 0.00 78 1024.3
20260904013223 13 19 0.0 0.0 0.00 0.00 0.00 78 1024.5
20260904012721 13 19 0.0 0.0 0.00 0.00 0.00 77 1024.6
20260904012221 13 19 0.0 0.0 0.00 0.00 0.00 77 1024.6
20260904011208 14 269 0.0 0.0 0.00 0.00 0.00 77 1024.6
20260904010217 14 116 0.0 0.0 0.00 0.00 0.00 76 1024.6
20260904005727 14 105 0.0 0.0 0.00 0.00 0.00 76 1024.6
20260904005229 14 105 0.0 0.0 0.00 0.00 0.00 77 1024.6
20260904004727 14 105 0.0 0.0 0.00 0.00 0.00 76 1024.6
20260904004219 14 66 0.0 0.0 0.00 0.00 0.00 76 1024.7
20260904003719 14 67 0.0 0.0 0.00 0.00 0.00 76 1024.8
20260904003223 14 78 0.0 0.0 0.00 0.00 0.00 76 1024.8
20260904002714 14 215 0.0 0.0 0.00 0.00 0.00 76 1024.8
20260904002221 14 215 0.0 0.0 0.00 0.00 0.00 76 1024.9
20260904001718 14 217 0.0 0.0 0.00 0.00 0.00 76 1024.9
20260904001222 14 219 0.0 0.0 0.00 0.00 0.00 76 1025.0
20260904000725 14 63 0.0 0.0 0.00 0.00 0.00 76 1025.0
20260904000221 14 39 0.0 0.0 0.00 0.00 0.00 76 1025.0
20260903235727 14 0 0.0 0.0 0.00 0.00 0.00 76 1024.9
20260903235215 14 249 0.0 0.0 0.00 0.00 0.00 76 1024.9
20260903234716 15 249 0.0 0.0 0.00 0.00 0.00 75 1024.9
20260903234234 15 249 0.0 0.0 0.00 0.00 0.00 75 1024.9
20260903233721 15 140 0.0 0.0 0.00 0.00 0.00 76 1024.9
20260903232222 15 14 0.0 0.0 0.00 0.00 0.00 75 1025.1
20260903231707 15 14 0.0 0.0 0.00 0.00 0.00 75 1025.1
20260903230716 15 355 0.0 0.0 0.00 0.00 0.00 75 1025.2
20260903225718 15 350 0.0 0.0 0.00 0.00 0.00 75 1025.2
20260903225218 15 350 0.0 0.0 0.00 0.00 0.00 75 1025.3
20260903224722 15 350 0.0 0.0 0.00 0.00 0.00 75 1025.2
20260903223717 15 346 0.0 0.0 0.00 0.00 0.00 74 1025.3
20260903223218 15 329 0.0 0.0 0.00 0.00 0.00 74 1025.3
20260903222226 15 329 0.0 0.0 0.00 0.00 0.00 74 1025.3
20260903221723 15 329 0.0 0.0 0.00 0.00 0.00 74 1025.2
20260903220743 15 174 0.0 0.0 0.00 0.00 0.00 73 1025.2
20260903220211 15 12 0.0 0.0 0.00 0.00 0.00 73 1025.2
20260903215720 15 12 0.0 0.0 0.00 0.00 0.00 73 1025.2
20260903215226 15 12 0.0 0.0 0.00 0.00 0.00 72 1025.2
20260903213714 16 59 0.0 0.0 0.00 0.00 0.00 72 1025.2
20260903213217 16 329 0.0 0.0 0.00 0.00 0.00 72 1025.2
20260903212728 16 329 0.0 0.0 0.00 0.00 0.00 71 1025.2
20260903212223 16 329 0.0 0.0 0.00 0.00 0.00 71 1025.2
20260903210720 16 38 0.0 0.0 0.00 0.00 0.00 70 1025.4
20260903210227 16 17 0.0 0.0 0.00 0.00 0.00 70 1025.4
20260903205720 16 16 0.0 0.0 0.00 0.00 0.00 69 1025.4
20260903205222 16 5 0.0 0.0 0.00 0.00 0.00 69 1025.4
20260903204720 16 75 0.0 0.0 0.00 0.00 0.00 69 1025.3
20260903204242 16 76 0.0 0.0 0.00 0.00 0.00 69 1025.3
20260903203709 16 112 0.0 0.0 0.00 0.00 0.00 68 1025.3
20260903203232 16 100 0.0 0.0 0.00 0.00 0.00 68 1025.3
20260903202727 16 100 0.0 0.0 0.00 0.00 0.00 68 1025.3
20260903202222 17 344 0.0 0.0 0.00 0.00 0.00 68 1025.3
20260903201723 17 344 0.0 0.0 0.00 0.00 0.00 67 1025.3
20260903201214 17 338 0.0 0.0 0.00 0.00 0.00 67 1025.3
20260903200212 17 338 0.0 0.0 0.00 0.00 0.00 66 1025.3
20260903195719 17 338 0.0 0.0 0.00 0.00 0.00 66 1025.3
20260903195212 17 338 0.0 0.0 0.00 0.00 0.00 66 1025.3
20260903194721 17 338 0.0 0.0 0.00 0.00 0.00 65 1025.3
20260903194227 17 338 0.0 0.0 0.00 0.00 0.00 65 1025.3
20260903193714 17 338 0.0 0.0 0.00 0.00 0.00 64 1025.3
20260903193219 18 338 0.0 0.0 0.00 0.00 0.00 64 1025.3
20260903192715 18 338 0.0 0.0 0.00 0.00 0.00 63 1025.3
20260903192213 18 348 0.0 0.0 0.00 0.00 0.00 62 1025.3
20260903191721 18 355 0.0 0.0 0.00 0.00 0.00 61 1025.2
20260903190727 18 327 0.0 0.0 0.00 0.00 0.00 61 1025.2
20260903190221 19 5 0.0 6.4 0.00 0.00 0.00 59 1025.1
20260903185719 19 315 0.0 6.4 0.00 0.00 0.00 59 1025.1
20260903185226 20 344 0.0 6.4 0.00 0.00 0.00 58 1025.0
20260903184715 20 34 0.0 0.0 0.00 0.00 0.00 56 1024.9
20260903184224 20 344 0.0 0.0 0.00 0.00 0.00 57 1024.8
20260903183725 20 337 0.0 0.0 0.00 0.00 0.00 56 1024.8
20260903182726 20 32 0.0 6.4 0.00 0.00 0.00 55 1024.7
20260903182214 20 11 0.0 8.0 0.00 0.00 0.00 54 1024.7
20260903180750 20 344 1.6 11.3 0.00 0.00 0.00 54 1024.6
20260903180226 20 344 0.0 4.8 0.00 0.00 0.00 54 1024.5
20260903175726 20 331 0.0 0.0 0.00 0.00 0.00 53 1024.4
20260903175223 20 32 0.0 0.0 0.00 0.00 0.00 55 1024.4
20260903174718 21 21 0.0 0.0 0.00 0.00 0.00 55 1024.3
20260903174213 21 0 0.0 0.0 0.00 0.00 0.00 56 1024.4
20260903173224 21 38 0.0 0.0 0.00 0.00 0.00 54 1024.3
20260903172718 21 355 0.0 0.0 0.00 0.00 0.00 53 1024.4
20260903172214 22 334 0.0 0.0 0.00 0.00 0.00 52 1024.3
20260903171731 22 334 0.0 0.0 0.00 0.00 0.00 51 1024.4
20260903170223 22 345 0.0 4.8 0.00 0.00 0.00 49 1024.3
20260903165719 22 236 0.0 4.8 0.00 0.00 0.00 47 1024.3
20260903165225 23 323 0.0 4.8 0.00 0.00 0.00 45 1024.3
20260903164718 23 340 0.0 0.0 0.00 0.00 0.00 43 1024.4
20260903164227 23 76 0.0 11.3 0.00 0.00 0.00 45 1024.3
20260903163725 23 351 0.0 14.5 0.00 0.00 0.00 45 1024.3
20260903163227 23 342 3.2 14.5 0.00 0.00 0.00 44 1024.1
20260903162716 23 344 3.2 14.5 0.00 0.00 0.00 42 1024.3
20260903162218 23 34 1.6 14.5 0.00 0.00 0.00 42 1024.3
20260903161219 23 323 3.2 14.5 0.00 0.00 0.00 43 1024.3
20260903160727 23 349 1.6 16.1 0.00 0.00 0.00 43 1024.4
20260903160223 23 119 1.6 16.1 0.00 0.00 0.00 41 1024.3
20260903155753 24 126 3.2 16.1 0.00 0.00 0.00 41 1024.4
20260903155215 24 315 8.0 16.1 0.00 0.00 0.00 41 1024.4
20260903154712 24 341 9.7 16.1 0.00 0.00 0.00 40 1024.5
20260903154235 24 323 8.0 16.1 0.00 0.00 0.00 40 1024.5
20260903153715 24 349 3.2 12.9 0.00 0.00 0.00 40 1024.5
20260903153216 24 321 1.6 16.1 0.00 0.00 0.00 39 1024.5
20260903152712 24 251 4.8 16.1 0.00 0.00 0.00 40 1024.4
20260903152211 24 270 4.8 16.1 0.00 0.00 0.00 39 1024.4
20260903151725 24 313 3.2 17.7 0.00 0.00 0.00 38 1024.4
20260903151220 24 266 4.8 19.3 0.00 0.00 0.00 38 1024.4
20260903145719 24 259 9.7 20.9 0.00 0.00 0.00 38 1024.4
20260903145216 24 300 8.0 16.1 0.00 0.00 0.00 38 1024.5
20260903144722 24 309 8.0 16.1 0.00 0.00 0.00 39 1024.4
20260903143717 24 328 8.0 16.1 0.00 0.00 0.00 41 1024.4
20260903143228 24 326 6.4 14.5 0.00 0.00 0.00 40 1024.4
20260903142714 24 288 6.4 19.3 0.00 0.00 0.00 40 1024.5
20260903142226 23 302 6.4 19.3 0.00 0.00 0.00 41 1024.5
20260903141727 23 305 4.8 19.3 0.00 0.00 0.00 41 1024.5
20260903141231 24 263 3.2 14.5 0.00 0.00 0.00 41 1024.5
20260903140721 24 296 1.6 14.5 0.00 0.00 0.00 41 1024.5
20260903140210 24 165 1.6 11.3 0.00 0.00 0.00 41 1024.6
20260903135718 24 96 0.0 11.3 0.00 0.00 0.00 42 1024.4
20260903135220 24 66 1.6 11.3 0.00 0.00 0.00 41 1024.4
20260903134732 24 308 3.2 11.3 0.00 0.00 0.00 40 1024.5
20260903134215 24 199 3.2 14.5 0.00 0.00 0.00 41 1024.5
20260903133747 24 342 4.8 14.5 0.00 0.00 0.00 41 1024.6
20260903133228 24 66 4.8 14.5 0.00 0.00 0.00 41 1024.5
20260903132745 25 148 3.2 12.9 0.00 0.00 0.00 40 1024.5
20260903131720 25 111 1.6 16.1 0.00 0.00 0.00 42 1024.6
20260903131214 24 61 3.2 16.1 0.00 0.00 0.00 40 1024.6
20260903130729 25 321 3.2 14.5 0.00 0.00 0.00 40 1024.5
20260903130227 24 304 3.2 17.7 0.00 0.00 0.00 41 1024.6
20260903125715 24 170 4.8 17.7 0.00 0.00 0.00 41 1024.6
20260903125220 24 151 6.4 22.5 0.00 0.00 0.00 42 1024.5
20260903124712 24 80 8.0 22.5 0.00 0.00 0.00 41 1024.4
20260903124217 24 125 6.4 20.9 0.00 0.00 0.00 41 1024.5
20260903123719 23 165 4.8 19.3 0.00 0.00 0.00 41 1024.5
20260903123213 24 128 3.2 19.3 0.00 0.00 0.00 41 1024.3
20260903122714 24 70 4.8 19.3 0.00 0.00 0.00 42 1024.6
20260903122219 23 177 6.4 19.3 0.00 0.00 0.00 42 1024.6
20260903121721 23 181 8.0 19.3 0.00 0.00 0.00 42 1024.6
20260903121223 23 179 8.0 22.5 0.00 0.00 0.00 42 1024.7
20260903120722 23 153 6.4 22.5 0.00 0.00 0.00 41 1024.7
20260903120219 23 166 3.2 22.5 0.00 0.00 0.00 41 1024.7
20260903115721 24 161 1.6 16.1 0.00 0.00 0.00 41 1024.8
20260903115221 23 280 4.8 16.1 0.00 0.00 0.00 43 1024.9
20260903114728 23 355 3.2 9.7 0.00 0.00 0.00 42 1024.9
20260903114226 23 5 1.6 8.0 0.00 0.00 0.00 39 1024.7
20260903113223 23 305 1.6 16.1 0.00 0.00 0.00 38 1024.9
20260903112722 23 202 3.2 16.1 0.00 0.00 0.00 36 1024.9
20260903111716 23 302 4.8 24.1 0.00 0.00 0.00 35 1025.3
20260903111213 22 341 8.0 24.1 0.00 0.00 0.00 39 1025.4
20260903110711 22 333 6.4 24.1 0.00 0.00 0.00 40 1025.3
20260903110209 23 306 4.8 17.7 0.00 0.00 0.00 39 1025.2
20260903105713 22 350 4.8 17.7 0.00 0.00 0.00 39 1025.2
20260903105214 22 22 3.2 17.7 0.00 0.00 0.00 37 1025.3
20260903104714 22 286 3.2 17.7 0.00 0.00 0.00 40 1025.3
20260903104217 22 346 3.2 17.7 0.00 0.00 0.00 43 1025.4
20260903103722 22 342 6.4 17.7 0.00 0.00 0.00 43 1025.3
20260903103211 22 342 8.0 20.9 0.00 0.00 0.00 43 1025.4
20260903102725 22 313 8.0 20.9 0.00 0.00 0.00 44 1025.3
20260903102219 22 0 8.0 20.9 0.00 0.00 0.00 45 1025.2
20260903101716 22 321 6.4 19.3 0.00 0.00 0.00 45 1025.2
20260903101215 22 266 8.0 27.4 0.00 0.00 0.00 44 1025.4
20260903100223 22 340 8.0 19.3 0.00 0.00 0.00 42 1025.5
20260903095724 22 329 4.8 11.3 0.00 0.00 0.00 42 1025.4
20260903095207 22 192 1.6 11.3 0.00 0.00 0.00 44 1025.4
20260903094733 22 351 1.6 9.7 0.00 0.00 0.00 48 1025.4
20260903094219 21 130 1.6 12.9 0.00 0.00 0.00 51 1025.4
20260903093205 21 164 3.2 14.5 0.00 0.00 0.00 53 1025.5
20260903092717 21 173 4.8 14.5 0.00 0.00 0.00 52 1025.5
20260903090732 20 165 4.8 16.1 0.00 0.00 0.00 54 1025.5
20260903090219 20 179 3.2 12.9 0.00 0.00 0.00 55 1025.4
20260903085226 20 183 3.2 11.3 0.00 0.00 0.00 55 1025.4
20260903084715 20 137 1.6 9.7 0.00 0.00 0.00 57 1025.5
20260903084208 20 176 1.6 11.3 0.00 0.00 0.00 57 1025.4
20260903083706 19 219 3.2 11.3 0.00 0.00 0.00 59 1025.4
20260903083217 19 165 4.8 12.9 0.00 0.00 0.00 60 1025.3
20260903082725 19 150 4.8 12.9 0.00 0.00 0.00 60 1025.2
20260903081719 18 178 3.2 11.3 0.00 0.00 0.00 61 1025.2
20260903081219 18 175 3.2 9.7 0.00 0.00 0.00 61 1025.4
20260903080715 18 152 1.6 4.8 0.00 0.00 0.00 61 1025.7
20260903075726 18 144 0.0 0.0 0.00 0.00 0.00 62 1025.5
20260903075215 18 134 0.0 0.0 0.00 0.00 0.00 62 1025.5
20260903074720 17 149 0.0 0.0 0.00 0.00 0.00 65 1025.3
20260903074215 17 134 0.0 0.0 0.00 0.00 0.00 64 1025.1
20260903073714 17 179 0.0 0.0 0.00 0.00 0.00 67 1025.1
20260903073229 16 252 0.0 0.0 0.00 0.00 0.00 68 1025.1
20260903072725 16 252 0.0 0.0 0.00 0.00 0.00 69 1025.1
20260903072223 16 202 0.0 0.0 0.00 0.00 0.00 71 1025.1
20260903071707 16 202 0.0 3.2 0.00 0.00 0.00 71 1025.0
20260903071239 16 202 0.0 3.2 0.00 0.00 0.00 72 1025.1
20260903070720 15 202 0.0 3.2 0.00 0.00 0.00 73 1025.1
20260903065722 14 5 0.0 4.8 0.00 0.00 0.00 79 1025.2